Regional Weather Roundup
Issued by NWS Jackson, KY

Home | Current Version | Previous Version | Graphics & Text | Print | Product List | Glossary On
Versions: 1 2 3 4 5 6 7 8 9 10 11 12 13 14 15 16 17 18 19 20 21 22 23 24 25 26 27 28
000
ASUS43 KJKL 242210
RWRJKL

EAST KENTUCKY HOURLY WEATHER ROUNDUP
NATIONAL WEATHER SERVICE JACKSON KY
600 PM EDT SUN SEP 24 2017

NOTE: "FAIR" INDICATES FEW OR NO CLOUDS BELOW 12,000 FEET WITH
NO SIGNIFICANT WEATHER AND/OR OBSTRUCTIONS TO VISIBILITY.

* THESE REPORTS ARE NOT UNDER NWS QUALITY CONTROL AND MAY NOT
  REPORT WEATHER SUCH AS PRECIPITATION AND FOG.

KYZ079-080-083-085-087-088-110-112-115-119-120-242300
...EASTERN KENTUCKY...

CITY           SKY/WX    TMP DP  RH WIND       PRES   REMARKS
JACKSON        SUNNY     82  61  48 CALM      30.07S
LONDON         SUNNY     86  60  41 CALM      30.05F
SOMERSET*      MOSUNNY   84  61  45 E5        30.05S
MONTICELLO*    MOSUNNY   84  67  56 NW6       30.05S
WILLIAMSBURG*  CLEAR     84  63  48 CALM      30.04F
MIDDLESBORO*   MOSUNNY   86  61  42 N5        30.05S
HARLAN APT*    CLEAR     82  61  47 CALM      30.06F
PIKE CO APT*     N/A     80  61  52 N7        30.07F
BIG SANDY APT* PTCLDY    81  65  59 NE3       30.07F
MOREHEAD APT*  CLEAR     82  59  44 VRB5      30.08S
$$

KYZ035-036-041-042-044-050-067-078-099-242300
...CENTRAL KENTUCKY...

CITY           SKY/WX    TMP DP  RH WIND       PRES   REMARKS
MT STERLING*   SUNNY     84  59  42 E7        30.07S
FLEMING/MASON* SUNNY     83  58  42 E6        30.07S
DANVILLE*      SUNNY     84  59  42 CALM      30.05S
LEXINGTON      SUNNY     86  60  41 E5        30.05S
FRANKFORT      SUNNY     83  58  42 E3        30.03S
LOUISVILLE     MOSUNNY   87  54  32 E9        30.00F
LEBANON*         N/A     84  61  45 CALM      30.03S
GLASGOW*       LGT RAIN  76  68  74 NE14      30.02R
BOWLING GREEN  SUNNY     84  70  62 S3        30.00S
$$

KYZ091>093-OHZ055-061-077-WVZ005-015-034-035-042-242300
...SOUTHERN OHIO/WEST VIRGINIA...

CITY           SKY/WX    TMP DP  RH WIND       PRES   REMARKS
COVINGTON      MOSUNNY   87  54  32 SE10      30.05S
COLUMBUS       SUNNY     88  60  38 SE6       30.06S
DAYTON         MOSUNNY   86  53  32 SE10      30.07S
WILMINGTON     SUNNY     85  55  35 SE6       30.07S
HUNTINGTON     SUNNY     88  55  32 CALM      30.04F
CHARLESTON     MOSUNNY   87  56  34 NE3       30.05S
PINEVILLE*     MOSUNNY   78  58  51 MISG      30.13S
BECKLEY        CLOUDY    79  53  40 S6        30.13S
BLUEFIELD      MOSUNNY   76  50  40 VRB5      30.16R
LOGAN CO APT*    N/A     82  61  47 CALM      30.08S
$$

VAZ002-007-008-TNZ017-027-036-066-071-242300
...SOUTHWEST VIRGINIA/EAST TENNESSEE...

CITY           SKY/WX    TMP DP  RH WIND       PRES   REMARKS
WISE*          SUNNY     81  54  39 CALM      30.15S
JONESVILLE*      N/A     86  59  39 CALM      30.07F
ABINGDON*      MOSUNNY   85  53  32 E8        30.10R
BRISTOL        CLOUDY    88  59  37 N3        30.05S
MORRISTOWN*    CLEAR     86  57  37 CALM      30.02F
SEVIERVILLE*   CLEAR     88  55  33 VRB6      30.00F
KNOXVILLE      MOSUNNY   86  60  41 N3        30.01F
LAFOLLETTE*    CLEAR     86  61  42 CALM      30.06F
OAK RIDGE      SUNNY     84  61  45 N3        30.04S
CROSSVILLE     MOSUNNY   80  62  54 NE3       30.08F
NASHVILLE      CLOUDY    86  63  45 SE6       30.00S
$$

...KEY TO REMARKS...
VSB - VISIBILITY IN MILES
WCI - WIND CHILL INDEX
HX  - HEAT INDEX

$$




USA.gov is the U.S. government's official web portal to all federal, state and local government web resources and services.